GW1525 Weather Reports


time (UTC)temp
C
wind
direction
speed
KPH
gust
KPH
rain 1hr
cm
rain 24hr
cm
rain mn
cm
humidity
%
barometer
mb
20260507084534 6 101 0.0 6.4 0.00 0.61 0.03 85 1015.4
20260507083025 6 22 0.0 3.2 0.00 0.61 0.03 85 1015.3
20260507080032 6 70 0.0 6.4 0.00 0.61 0.03 82 1015.2
20260507074540 6 40 1.6 8.0 0.00 0.71 0.03 83 1015.2
20260507071532 6 143 6.4 11.3 0.00 0.71 0.03 83 1015.0
20260507070032 5 112 0.0 6.4 0.00 0.71 0.03 83 1014.8
20260507063035 5 40 3.2 9.7 0.00 1.02 0.03 82 1014.7
20260507060032 3 144 3.2 8.0 0.00 1.02 0.03 88 1014.4
20260507054529 3 93 1.6 8.0 0.00 1.17 0.03 93 1014.2
20260507053032 2 195 1.6 11.3 0.00 1.17 0.03 93 1014.1
20260507050035 0 303 0.0 3.2 0.00 1.17 0.03 93 1013.8
20260507043031 -2 350 0.0 0.0 0.00 1.17 0.03 92 1013.4
20260507040030 -3 350 0.0 0.0 0.00 1.17 0.03 90 1013.1
20260507034531 -3 350 0.0 0.0 0.00 1.17 0.03 89 1013.0
20260507033029 -3 350 0.0 0.0 0.00 1.17 0.03 89 1012.9
20260507030030 -2 350 0.0 0.0 0.00 1.17 0.03 88 1012.8
20260507024528 -1 350 0.0 0.0 0.00 1.17 0.03 88 1012.8
20260507023025 -1 350 0.0 0.0 0.00 1.17 0.03 88 1012.8
20260507020045 0 350 0.0 0.0 0.00 1.17 0.03 89 1012.8
20260507013034 0 349 1.6 3.2 0.00 1.17 0.03 88 1012.7
20260507010026 1 349 0.0 6.4 0.00 1.17 0.03 86 1012.6
20260507003029 2 79 0.0 6.4 0.00 1.17 0.03 84 1012.6
20260507000036 1 69 1.6 6.4 0.00 1.17 0.03 89 1012.8
20260506233033 2 29 0.0 3.2 0.00 1.17 0.03 85 1012.6
20260506231526 3 26 0.0 8.0 0.03 1.17 0.03 83 1012.8
20260506224533 3 346 3.2 9.7 0.03 1.17 0.03 86 1012.8
20260506223031 3 283 4.8 12.9 0.03 1.17 0.03 89 1013.0
20260506220046 3 309 4.8 12.9 0.00 1.14 0.00 88 1012.8
20260506214527 3 322 3.2 11.3 0.00 1.14 1.14 87 1012.8
20260506211531 4 88 0.0 12.9 0.03 1.14 1.14 90 1013.2
20260506204526 3 16 0.0 11.3 0.03 1.14 1.14 87 1013.0
20260506201533 4 350 3.2 19.3 0.03 1.12 1.12 88 1012.9
20260506194527 4 283 4.8 11.3 0.05 1.14 1.12 90 1012.6
20260506193017 4 269 4.8 11.3 0.10 1.14 1.12 89 1012.5
20260506190028 4 250 9.7 19.3 0.13 1.12 1.09 88 1012.0
20260506183022 5 59 1.6 9.7 0.05 1.04 1.02 87 1011.8
20260506180028 5 18 3.2 11.3 0.00 0.99 0.99 89 1011.9
20260506174521 5 339 6.4 12.9 0.00 0.99 0.99 89 1011.9
20260506171528 5 313 1.6 12.9 0.00 0.99 0.99 84 1011.5
20260506170027 5 130 4.8 16.1 0.00 0.99 0.99 84 1011.3
20260506163035 5 95 1.6 9.7 0.00 1.07 0.99 88 1011.2
20260506160025 5 31 1.6 14.5 0.00 1.07 0.99 91 1011.4
20260506153040 5 46 1.6 8.0 0.00 1.09 0.99 91 1011.2
20260506151533 5 318 1.6 16.1 0.00 1.09 0.99 92 1011.3
20260506144530 5 281 1.6 16.1 0.05 1.09 0.99 94 1011.4
20260506141529 4 66 3.2 9.7 0.15 1.09 0.99 94 1011.4
20260506140040 3 163 3.2 16.1 0.13 1.07 0.97 93 1011.8
20260506134524 3 87 4.8 20.9 0.08 1.09 0.91 93 1011.9
20260506131529 5 164 3.2 8.0 0.05 0.99 0.84 94 1012.0
20260506124526 5 257 3.2 19.3 0.10 1.07 0.81 94 1011.9
20260506121529 5 29 4.8 20.9 0.10 1.02 0.79 94 1011.7
20260506120026 5 360 3.2 22.5 0.08 0.99 0.79 94 1011.7
20260506113032 5 247 11.3 20.9 0.08 1.04 0.71 94 1011.8
20260506110034 5 90 6.4 16.1 0.08 1.02 0.71 94 1012.2
20260506104554 5 136 6.4 17.7 0.05 1.45 0.69 94 1012.5
20260506103028 5 287 9.7 16.1 0.05 1.42 0.64 94 1012.7
20260506101525 4 248 6.4 19.3 0.05 1.40 0.61 94 1012.3
20260506094529 4 317 4.8 22.5 0.05 1.68 0.61 93 1012.5
20260506091527 3 107 8.0 17.7 0.03 1.65 0.58 93 1012.5